This demonstration page uses our WeatherBlox Daily Observations layout. Learn more.

Left ArrowRight Arrow

39.12711, -84.51439

Hourly Observations for May 4, 2018

Temp ( °F °C ) Dew Point ( °F °C ) Humidity (%) Winds ( mph kmh ) Pressure ( in mb ) Visibility ( mi km ) Precip ( " mm )
12:53 am 00:53 Clear 69 20.6 62 16.7 78 78 WSW 5 7 29.96 1015 10 16 0.00 0.00
1:53 am 01:53 Clear 65 18.3 63 17.2 93 93 ESE 3 6 29.95 1014 10 16 0.00 0.00
2:53 am 02:53 Clear 65 18.3 62 16.7 90 90 NNE 3 6 29.94 1014 10 16 0.00 0.00
3:53 am 03:53 Clear 61 16.1 61 16.1 100 100 Calm 29.94 1014 9 14 0.00 0.00
4:53 am 04:53 Mostly Cloudy 71 21.7 61 16.1 71 71 SW 14 22 29.93 1014 10 16 0.00 0.00
5:53 am 05:53 Cloudy 73 22.8 60 15.6 64 64 SSW 15 24 29.93 1014 10 16 0.00 0.00
6:53 am 06:53 Cloudy 73 22.8 60 15.6 64 64 SW 14 22 29.95 1014 10 16 0.00 0.03
7:53 am 07:53 Mostly Cloudy 72 22.2 61 16.1 68 68 SSW 15 24 29.95 1014 10 16 0.00 0.03
8:53 am 08:53 Mostly Cloudy 75 23.9 63 17.2 66 66 SW 17 28 29.96 1015 10 16 0.00 0.00
9:53 am 09:53 Partly Cloudy 75 23.9 63 17.2 66 66 WSW 17 28 29.94 1014 10 16 0.00 0.00
10:53 am 10:53 Partly Cloudy 77 25 65 18.3 66 66 SW 14 22 29.93 1014 10 16 0.00 0.00
11:53 am 11:53 Mostly Cloudy 78 25.6 65 18.3 64 64 WSW 23 37 29.93 1014 10 16 0.00 0.00
12:53 pm 12:53 Cloudy 78 25.6 64 17.8 62 62 SW 18 30 29.92 1013 10 16 0.00 0.00
1:53 pm 13:53 Mostly Cloudy 79 26.1 62 16.7 56 56 WSW 25 41 29.93 1014 10 16 0.00 0.00
2:53 pm 14:53 Partly Cloudy 78 25.6 63 17.2 60 60 W 16 26 29.94 1014 10 16 0.00 0.00
3:53 pm 15:53 Mostly Cloudy 78 25.6 61 16.1 56 56 WSW 22 35 29.94 1014 10 16 0.00 0.00
4:53 pm 16:53 Mostly Sunny 78 25.6 63 17.2 60 60 WSW 15 24 29.93 1013 10 16 0.00 0.00
5:53 pm 17:53 Mostly Cloudy with Light Rain 72 22.2 58 14.4 61 61 W 20 31 29.98 1015 7 11 0.00 0.03
6:00 pm 18:00 Mostly Cloudy with Light Rain 70 21.1 59 15 68 68 W 13 20 29.97 1015 6 10 0.01 0.25
6:53 pm 18:53 Mostly Cloudy 67 19.4 62 16.7 84 84 WSW 7 11 29.98 1015 10 16 0.03 0.76
7:53 pm 19:53 Mostly Sunny 66 18.9 65 18.3 96 96 Calm 29.99 1016 10 16 0.00 0.00
8:53 pm 20:53 Clear 65 18.3 64 17.8 97 97 S 3 6 30.02 1017 10 16 0.00 0.00
9:53 pm 21:53 Clear 64 17.8 64 17.8 100 100 Calm 30.04 1017 7 11 0.00 0.00
10:53 pm 22:53 Partly Cloudy 64 17.8 63 17.2 96 96 NE 6 9 30.07 1018 10 16 0.00 0.00
11:53 pm 23:53 Mostly Cloudy with Mist and Fog 63 17.2 63 17.2 100 100 NNE 3 6 30.07 1018 6 10 0.00 0.00

Powered by AerisWeather